• In Czech Republic
  • List of Countries
  • For 7 days
  • Water Temperature
  • Satellite Maps
  • Weather Map
  • Weather Widgets
  • user-avatar
    Login

    Hourly Weather Saurimo

    Today, 23 September, Sunday

    Time Temperature Precipitation Wind Pressure Humidity
    00:00 +23°C° 0 mm 0 mps 669 mmHg 38%
    01:00 +22°C° 0 mm 0 mps 669 mmHg 40%
    02:00 +22°C° 0 mm 0 mps 668 mmHg 41%
    03:00 +21°C° 0 mm 0 mps 668 mmHg 42%
    04:00 +21°C° 0 mm 0 mps 668 mmHg 42%
    05:00 +22°C° 0 mm 0 mps 669 mmHg 39%
    06:00 +24°C° 0 mm 0 mps 669 mmHg 36%
    07:00 +28°C° 0 mm 1 mps 670 mmHg 33%
    08:00 +31°C° 0 mm 1 mps 671 mmHg 27%
    09:00 +35°C° 0 mm 2 mps 671 mmHg 21%
    10:00 +39°C° 0 mm 2 mps 672 mmHg 16%
    11:00 +39°C° 0 mm 2 mps 671 mmHg 15%
    12:00 +39°C° 0 mm 2 mps 670 mmHg 14%
    13:00 +39°C° 0 mm 2 mps 670 mmHg 13%
    14:00 +38°C° 0 mm 2 mps 669 mmHg 15%
    15:00 +37°C° 0 mm 2 mps 669 mmHg 16%
    16:00 +35°C° 0 mm 1 mps 668 mmHg 17%
    17:00 +34°C° 0 mm 1 mps 668 mmHg 19%
    18:00 +32°C° 0 mm 1 mps 668 mmHg 20%
    19:00 +31°C° 0 mm 1 mps 669 mmHg 21%
    20:00 +30°C° 0 mm 1 mps 669 mmHg 23%
    21:00 +29°C° 0 mm 1 mps 669 mmHg 25%
    22:00 +28°C° 0 mm 1 mps 669 mmHg 27%
    23:00 +28°C° 0 mm 1 mps 669 mmHg 28%

    Tomorrow, 24 September, Monday

    Time Temperature Precipitation Wind Pressure Humidity
    00:00 +27°C° 0 mm 1 mps 669 mmHg 29%
    01:00 +27°C° 0 mm 1 mps 669 mmHg 30%
    02:00 +27°C° 0 mm 1 mps 669 mmHg 32%
    03:00 +26°C° 0 mm 1 mps 669 mmHg 33%
    04:00 +26°C° 0 mm 1 mps 668 mmHg 35%
    05:00 +27°C° 0 mm 2 mps 669 mmHg 36%
    06:00 +27°C° 0 mm 2 mps 670 mmHg 38%
    07:00 +28°C° 0 mm 3 mps 670 mmHg 40%
    08:00 +31°C° 0 mm 3 mps 671 mmHg 35%
    09:00 +34°C° 0 mm 3 mps 671 mmHg 31%
    10:00 +37°C° 0 mm 2 mps 672 mmHg 27%
    11:00 +36°C° 0 mm 2 mps 671 mmHg 26%
    12:00 +36°C° 0 mm 2 mps 670 mmHg 25%
    13:00 +35°C° 0 mm 1 mps 669 mmHg 23%
    14:00 +35°C° 0 mm 2 mps 669 mmHg 25%
    15:00 +35°C° 0 mm 2 mps 669 mmHg 26%
    16:00 +34°C° 0 mm 2 mps 668 mmHg 27%
    17:00 +32°C° 0.3 mm 2 mps 668 mmHg 31%
    18:00 +30°C° 0.3 mm 2 mps 669 mmHg 35%
    19:00 +29°C° 0.3 mm 2 mps 669 mmHg 38%
    20:00 +29°C° 0 mm 1 mps 669 mmHg 38%
    21:00 +29°C° 0 mm 1 mps 670 mmHg 39%
    22:00 +26°C° 0 mm 0 mps 670 mmHg 39%
    23:00 +28°C° 0 mm 1 mps 670 mmHg 40%

    Day after tomorrow, 25 September, Tuesday

    Time Temperature Precipitation Wind Pressure Humidity
    00:00 +27°C° 0 mm 1 mps 669 mmHg 41%
    01:00 +27°C° 0 mm 2 mps 669 mmHg 43%
    02:00 +26°C° 0 mm 2 mps 668 mmHg 47%
    03:00 +25°C° 0 mm 2 mps 668 mmHg 52%
    04:00 +24°C° 0 mm 2 mps 668 mmHg 57%
    05:00 +24°C° 0 mm 2 mps 669 mmHg 57%
    06:00 +25°C° 0 mm 2 mps 670 mmHg 56%
    07:00 +26°C° 0 mm 3 mps 671 mmHg 56%
    08:00 +29°C° 0 mm 3 mps 671 mmHg 49%
    09:00 +33°C° 0 mm 3 mps 671 mmHg 41%
    10:00 +35°C° 0 mm 3 mps 672 mmHg 34%
    11:00 +37°C° 0 mm 2 mps 671 mmHg 30%
    12:00 +38°C° 0 mm 2 mps 670 mmHg 26%
    13:00 +39°C° 0 mm 1 mps 670 mmHg 22%
    14:00 +37°C° 0 mm 1 mps 669 mmHg 23%
    15:00 +36°C° 0 mm 1 mps 669 mmHg 24%
    16:00 +35°C° 0 mm 1 mps 668 mmHg 26%
    17:00 +33°C° 0 mm 1 mps 669 mmHg 29%
    18:00 +31°C° 0 mm 1 mps 669 mmHg 32%
    19:00 +30°C° 0 mm 1 mps 669 mmHg 36%
    20:00 +29°C° 0 mm 1 mps 670 mmHg 39%
    21:00 +28°C° 0 mm 1 mps 670 mmHg 42%
    22:00 +27°C° 0 mm 1 mps 670 mmHg 46%
    23:00 +27°C° 0.1 mm 1 mps 670 mmHg 48%

    26 September, Wednesday

    Time Temperature Precipitation Wind Pressure Humidity
    00:00 +27°C° 0.1 mm 1 mps 669 mmHg 51%
    01:00 +27°C° 0.1 mm 1 mps 669 mmHg 53%
    02:00 +26°C° 0.4 mm 2 mps 669 mmHg 57%
    03:00 +25°C° 0.4 mm 2 mps 669 mmHg 60%
    04:00 +25°C° 0.4 mm 3 mps 669 mmHg 64%
    05:00 +25°C° 0 mm 2 mps 669 mmHg 63%
    06:00 +26°C° 0 mm 2 mps 670 mmHg 62%
    07:00 +26°C° 0 mm 1 mps 670 mmHg 61%
    08:00 +29°C° 0 mm 1 mps 671 mmHg 51%
    09:00 +32°C° 0 mm 2 mps 671 mmHg 40%
    10:00 +37°C° 0 mm 2 mps 672 mmHg 30%
    11:00 +37°C° 0 mm 2 mps 671 mmHg 28%
    12:00 +37°C° 0 mm 2 mps 670 mmHg 25%
    13:00 +37°C° 0 mm 2 mps 669 mmHg 23%
    14:00 +36°C° 0 mm 1 mps 669 mmHg 23%
    15:00 +35°C° 0 mm 1 mps 669 mmHg 24%
    16:00 +35°C° 0 mm 1 mps 668 mmHg 24%
    17:00 +33°C° 0 mm 1 mps 669 mmHg 28%
    18:00 +31°C° 0 mm 1 mps 669 mmHg 31%
    19:00 +29°C° 0 mm 1 mps 669 mmHg 35%
    20:00 +29°C° 0 mm 1 mps 669 mmHg 38%
    21:00 +28°C° 0 mm 1 mps 669 mmHg 42%
    22:00 +27°C° 0 mm 1 mps 669 mmHg 46%
    23:00 +26°C° 0 mm 1 mps 669 mmHg 49%

    27 September, Thursday

    Time Temperature Precipitation Wind Pressure Humidity
    00:00 +25°C° 0 mm 2 mps 669 mmHg 53%
    01:00 +25°C° 0 mm 2 mps 668 mmHg 57%
    02:00 +24°C° 0 mm 2 mps 668 mmHg 61%
    03:00 +23°C° 0 mm 1 mps 668 mmHg 65%
    04:00 +23°C° 0 mm 1 mps 668 mmHg 69%
    05:00 +24°C° 0 mm 1 mps 669 mmHg 66%
    06:00 +25°C° 0 mm 1 mps 670 mmHg 62%
    07:00 +26°C° 0 mm 2 mps 670 mmHg 59%
    08:00 +29°C° 0 mm 2 mps 671 mmHg 49%
    09:00 +34°C° 0 mm 2 mps 671 mmHg 40%
    10:00 +37°C° 0 mm 2 mps 672 mmHg 30%
    11:00 +36°C° 0 mm 1 mps 671 mmHg 28%
    12:00 +37°C° 0 mm 1 mps 670 mmHg 26%
    13:00 +35°C° 0 mm 0 mps 669 mmHg 25%
    14:00 +36°C° 0 mm 1 mps 669 mmHg 26%
    15:00 +35°C° 0 mm 1 mps 669 mmHg 27%
    16:00 +35°C° 0 mm 1 mps 668 mmHg 28%
    17:00 +32°C° 0.7 mm 2 mps 668 mmHg 39%
    18:00 +29°C° 0.7 mm 3 mps 668 mmHg 50%
    19:00 +26°C° 0.7 mm 4 mps 669 mmHg 61%
    20:00 +25°C° 0.3 mm 3 mps 669 mmHg 65%
    21:00 +24°C° 0.3 mm 2 mps 669 mmHg 69%
    22:00 +24°C° 0.3 mm 1 mps 669 mmHg 72%
    23:00 +24°C° 0 mm 1 mps 669 mmHg 74%

    28 September, Friday

    Time Temperature Precipitation Wind Pressure Humidity
    00:00 +23°C° 0 mm 1 mps 668 mmHg 75%
    01:00 +23°C° 0 mm 1 mps 668 mmHg 77%
    02:00 +23°C° 0 mm 1 mps 668 mmHg 78%
    03:00 +22°C° 0 mm 1 mps 668 mmHg 80%
    04:00 +22°C° 0 mm 1 mps 668 mmHg 81%
    05:00 +23°C° 0 mm 1 mps 669 mmHg 75%
    06:00 +24°C° 0 mm 1 mps 670 mmHg 70%
    07:00 +26°C° 0 mm 1 mps 671 mmHg 64%
    08:00 +29°C° 0 mm 1 mps 671 mmHg 53%
    09:00 +32°C° 0 mm 2 mps 671 mmHg 42%
    10:00 +36°C° 0 mm 2 mps 672 mmHg 31%
    11:00 +36°C° 0 mm 2 mps 671 mmHg 30%
    12:00 +35°C° 0 mm 1 mps 670 mmHg 28%
    13:00 +35°C° 0 mm 1 mps 669 mmHg 27%
    14:00 +34°C° 0.1 mm 1 mps 668 mmHg 31%
    15:00 +34°C° 0.1 mm 2 mps 668 mmHg 34%
    16:00 +32°C° 0.1 mm 2 mps 668 mmHg 38%
    17:00 +30°C° 0.8 mm 2 mps 668 mmHg 45%
    18:00 +28°C° 0.8 mm 2 mps 668 mmHg 52%
    19:00 +27°C° 0.8 mm 3 mps 668 mmHg 60%
    20:00 +26°C° 0.6 mm 2 mps 669 mmHg 63%
    21:00 +25°C° 0.6 mm 2 mps 669 mmHg 67%
    22:00 +24°C° 0.6 mm 2 mps 669 mmHg 70%
    23:00 +24°C° 1.2 mm 2 mps 669 mmHg 74%
    Show more